H1 CPF 2 NER 2025 12 22 9 356 01 glonass138 H2 1805301 9138 43508 2025 12 22 0 0 0 2025 12 25 23 45 0 900 1 1 0 0 0 1 H9 10 0 61031 0.00000 0 -18509285.404 -4299382.489 -16989747.458 10 0 61031 900.00000 0 -16310051.964 -4676095.123 -19023125.319 10 0 61031 1800.00000 0 -13927789.072 -5282912.993 -20686272.611 10 0 61031 2700.00000 0 -11429650.975 -6130283.581 -21946888.710 10 0 61031 3600.00000 0 -8885085.439 -7216032.785 -22780528.371 10 0 61031 4500.00000 0 -6363108.450 -8525279.036 -23171072.079 10 0 61031 5400.00000 0 -3929612.446 -10030896.411 -23111032.451 10 0 61031 6300.00000 0 -1644820.085 -11694507.408 -22601691.450 10 0 61031 7200.00000 0 439010.967 -13467963.766 -21653066.498 10 0 61031 8100.00000 0 2279537.629 -15295253.221 -20283706.852 10 0 61031 9000.00000 0 3845855.572 -17114752.379 -18520324.755 10 0 61031 9900.00000 0 5119536.074 -18861731.374 -16397269.051 10 0 61031 10800.00000 0 6095134.228 -20471005.577 -13955851.764 10 0 61031 11700.00000 0 6780149.336 -21879623.522 -11243540.980 10 0 61031 12600.00000 0 7194441.147 -23029478.719 -8313035.822 10 0 61031 13500.00000 0 7369128.398 -23869736.254 -5221241.600 10 0 61031 14400.00000 0 7345017.623 -24358972.875 -2028165.031 10 0 61031 15300.00000 0 7170629.766 -24466941.217 1204248.940 10 0 61031 16200.00000 0 6899908.803 -24175884.566 4413316.148 10 0 61031 17100.00000 0 6589709.774 -23481347.440 7536824.912 10 0 61031 18000.00000 0 6297172.589 -22392448.267 10514237.021 10 0 61031 18900.00000 0 6077092.568 -20931602.813 13287855.000 10 0 61031 19800.00000 0 5979398.575 -19133709.899 15803933.479 10 0 61031 20700.00000 0 6046844.960 -17044833.085 18013713.599 10 0 61031 21600.00000 0 6313014.413 -14720432.937 19874361.155 10 0 61031 22500.00000 0 6800715.807 -12223222.799 21349791.032 10 0 61031 23400.00000 0 7520844.611 -9620736.468 22411362.654 10 0 61031 24300.00000 0 8471754.229 -6982707.838 23038433.639 10 0 61031 25200.00000 0 9639165.526 -4378370.110 23218761.317 10 0 61031 26100.00000 0 10996619.538 -1873785.596 22948744.514 10 0 61031 27000.00000 0 12506455.869 470684.181 22233500.749 10 0 61031 27900.00000 0 14121277.485 2602664.088 21086776.872 10 0 61031 28800.00000 0 15785842.308 4479712.467 19530694.037 10 0 61031 29700.00000 0 17439304.008 6070849.363 17595330.932 10 0 61031 30600.00000 0 19017709.524 7357602.618 15318152.119 10 0 61031 31500.00000 0 20456649.569 8334528.402 12743291.398 10 0 61031 32400.00000 0 21693951.466 9009184.528 9920702.992 10 0 61031 33300.00000 0 22672301.199 9401557.799 6905196.168 10 0 61031 34200.00000 0 23341683.955 9542969.597 3755371.600 10 0 61031 35100.00000 0 23661539.537 9474506.138 532480.005 10 0 61031 36000.00000 0 23602540.669 9245040.129 -2700774.445 10 0 61031 36900.00000 0 23147917.865 8908928.197 -5881461.925 10 0 61031 37800.00000 0 22294273.665 8523482.494 -8947661.153 10 0 61031 38700.00000 0 21051850.693 8146324.711 -11839674.792 10 0 61031 39600.00000 0 19444241.233 7832735.874 -14501201.227 10 0 61031 40500.00000 0 17507549.920 7633115.479 -16880438.840 10 0 61031 41400.00000 0 15289044.351 7590658.764 -18931100.422 10 0 61031 42300.00000 0 12845350.275 7739351.457 -20613317.406 10 0 61031 43200.00000 0 10240267.105 8102367.573 -21894416.101 10 0 61031 44100.00000 0 7542295.461 8690938.510 -22749550.951 10 0 61031 45000.00000 0 4821980.272 9503741.412 -23162182.848 10 0 61031 45900.00000 0 2149180.396 10526832.678 -23124393.828 10 0 61031 46800.00000 0 -409621.630 11734129.336 -22637032.729 10 0 61031 47700.00000 0 -2793858.116 13088417.874 -21709689.756 10 0 61031 48600.00000 0 -4951158.192 14542847.914 -20360501.120 10 0 61031 49500.00000 0 -6839279.422 16042847.876 -18615788.183 10 0 61031 50400.00000 0 -8427610.120 17528382.032 -16509538.561 10 0 61031 51300.00000 0 -9698181.496 18936454.232 -14082739.650 10 0 61031 52200.00000 0 -10646149.371 20203753.243 -11382577.677 10 0 61031 53100.00000 0 -11279727.320 21269328.767 -8461518.056 10 0 61031 54000.00000 0 -11619576.052 22077186.011 -5376284.925 10 0 61031 54900.00000 0 -11697676.488 22578690.085 -2186759.768 10 0 61031 55800.00000 0 -11555735.462 22734679.476 1045179.459 10 0 61031 56700.00000 0 -11243192.488 22517200.128 4256856.175 10 0 61031 57600.00000 0 -10814912.483 21910787.567 7386006.849 10 0 61031 58500.00000 0 -10328662.284 20913243.273 10371983.069 10 0 61031 59400.00000 0 -9842477.693 19535872.888 13156921.028 10 0 61031 60300.00000 0 -9412031.958 17803175.921 15686856.136 10 0 61031 61200.00000 0 -9088116.494 15751999.556 17912761.659 10 0 61031 62100.00000 0 -8914339.657 13430191.326 19791492.006 10 0 61031 63000.00000 0 -8925140.173 10894805.928 21286613.093 10 0 61031 63900.00000 0 -9144198.621 8209939.828 22369104.435 10 0 61031 64800.00000 0 -9583313.789 5444282.453 23017919.967 10 0 61031 65700.00000 0 -10241791.475 2668484.297 23220397.214 10 0 61031 66600.00000 0 -11106372.097 -47550.107 22972507.005 10 0 61031 67500.00000 0 -12151701.190 -2637333.358 22278938.800 10 0 61031 68400.00000 0 -13341324.367 -5040320.843 21153019.466 10 0 61031 69300.00000 0 -14629166.519 -7204186.953 19616466.311 10 0 61031 70200.00000 0 -15961434.647 -9086758.014 17698978.111 10 0 61031 71100.00000 0 -17278865.915 -10657521.988 15437670.861 10 0 61031 72000.00000 0 -18519227.536 -11898652.260 12876368.019 10 0 61031 72900.00000 0 -19619964.144 -12805502.885 10064757.891 10 0 61031 73800.00000 0 -20520881.478 -13386554.588 7057433.646 10 0 61031 74700.00000 0 -21166753.061 -13662813.879 3912834.124 10 0 61031 75600.00000 0 -21509739.253 -13666690.704 692105.858 10 0 61031 76500.00000 0 -21511515.518 -13440402.316 -2542091.250 10 0 61031 77400.00000 0 -21145018.674 -13033971.303 -5726810.713 10 0 61031 78300.00000 0 -20395735.965 -12502903.228 -8800053.842 10 0 61031 79200.00000 0 -19262481.058 -11905643.162 -11701986.622 10 0 61031 80100.00000 0 -17757622.976 -11300919.911 -14376114.154 10 0 61031 81000.00000 0 -15906757.270 -10745091.601 -16770388.768 10 0 61031 81900.00000 0 -13747832.534 -10289606.091 -18838229.345 10 0 61031 82800.00000 0 -11329768.545 -9978684.618 -20539431.421 10 0 61031 83700.00000 0 -8710623.806 -9847327.338 -21840950.135 10 0 61031 84600.00000 0 -5955389.185 -9919725.461 -22717540.892 10 0 61031 85500.00000 0 -3133499.959 -10208147.105 -23152245.614 10 0 61032 0.00000 0 -316170.352 -10712343.714 -23136715.764 10 0 61032 900.00000 0 2426340.018 -11419502.024 -22671366.468 10 0 61032 1800.00000 0 5027410.511 -12304742.424 -21765359.595 10 0 61032 2700.00000 0 7426588.651 -13332143.164 -20436416.813 10 0 61032 3600.00000 0 9571856.063 -14456246.214 -18710466.746 10 0 61032 4500.00000 0 11421539.629 -15623981.276 -16621133.654 10 0 61032 5400.00000 0 12945789.516 -16776926.711 -14209077.911 10 0 61032 6300.00000 0 14127564.240 -17853812.123 -11521201.294 10 0 61032 7200.00000 0 14963083.476 -18793157.258 -8609732.701 10 0 61032 8100.00000 0 15461731.606 -19535936.262 -5531212.155 10 0 61032 9000.00000 0 15645417.925 -20028155.308 -2345392.856 10 0 61032 9900.00000 0 15547422.017 -20223235.283 885917.345 10 0 61032 10800.00000 0 15210774.279 -20084099.472 4100052.539 10 0 61032 11700.00000 0 14686240.796 -19584878.521 7234700.310 10 0 61032 12600.00000 0 14029998.319 -18712161.159 10229104.839 10 0 61032 13500.00000 0 13301097.575 -17465738.010 13025238.539 10 0 61032 14400.00000 0 12558821.845 -15858806.933 15568919.845 10 0 61032 15300.00000 0 11860051.956 -13917630.947 17810856.098 10 0 61032 16200.00000 0 11256748.138 -11680662.135 19707591.912 10 0 61032 17100.00000 0 10793654.299 -9197167.189 21222345.452 10 0 61032 18000.00000 0 10506320.822 -6525410.760 22325717.155 10 0 61032 18900.00000 0 10419528.542 -3730470.708 22996257.753 10 0 61032 19800.00000 0 10546180.046 -881774.538 23220885.072 10 0 61032 20700.00000 0 10886705.045 1949542.194 22995141.719 10 0 61032 21600.00000 0 11429005.267 4693347.403 22323288.556 10 0 61032 22500.00000 0 12148942.064 7283182.777 21218231.652 10 0 61032 23400.00000 0 13011347.335 9658783.141 19701283.403 10 0 61032 24300.00000 0 13971516.519 11768341.086 17801761.381 10 0 61032 25200.00000 0 14977122.166 13570423.289 15556431.523 10 0 61032 26100.00000 0 15970468.651 15035458.941 13008805.250 10 0 61032 27000.00000 0 16890993.894 16146738.284 10208303.066 10 0 61032 27900.00000 0 17677913.056 16900879.463 7209299.962 10 0 61032 28800.00000 0 18272892.589 17307744.010 4070070.674 10 0 61032 29700.00000 0 18622641.220 17389804.535 851655.139 10 0 61032 30600.00000 0 18681307.424 17180991.390 -2383333.546 10 0 61032 31500.00000 0 18412580.757 16725067.291 -5571934.801 10 0 61032 32400.00000 0 17791406.735 16073599.148 -8652075.080 10 0 61032 33300.00000 0 16805241.211 15283613.638 -11563786.137 10 0 61032 34200.00000 0 15454789.807 14415036.685 -14250382.083 10 0 61032 35100.00000 0 13754199.851 13528026.239 -16659571.293 10 0 61032 36000.00000 0 11730695.698 12680312.186 -18744480.635 10 0 61032 36900.00000 0 9423671.976 11924656.795 -20464571.454 10 0 61032 37800.00000 0 6883282.347 11306543.660 -21786429.242 10 0 61032 38700.00000 0 4168582.574 10862193.087 -22684411.710 10 0 61032 39600.00000 0 1345305.496 10616987.715 -23141142.976 10 0 61032 40500.00000 0 -1516639.332 10584374.454 -23147844.832 10 0 61032 41400.00000 0 -4345837.220 10765288.473 -22704499.369 10 0 61032 42300.00000 0 -7072100.132 11148122.758 -21819840.509 10 0 61032 43200.00000 0 -9629145.517 11709243.713 -20511175.344 10 0 61032 44100.00000 0 -11957111.468 12414030.230 -18804039.331 10 0 61032 45000.00000 0 -14004804.533 13218391.748 -16731692.557 10 0 61032 45900.00000 0 -15731587.879 14070700.728 -14334467.201 10 0 61032 46800.00000 0 -17108832.606 14914057.678 -11658979.104 10 0 61032 47700.00000 0 -18120873.302 15688792.975 -8757218.921 10 0 61032 48600.00000 0 -18765429.625 16335099.920 -5685540.627 10 0 61032 49500.00000 0 -19053478.067 16795687.960 -2503567.016 10 0 61032 50400.00000 0 -19008580.860 17018344.334 726966.419 10 0 61032 51300.00000 0 -18665701.703 16958296.229 3943406.854 10 0 61032 52200.00000 0 -18069559.257 16580274.031 7083395.557 10 0 61032 53100.00000 0 -17272588.587 15860188.826 10086072.016 10 0 61032 54000.00000 0 -16332596.831 14786353.487 12893247.667 10 0 61032 54900.00000 0 -15310211.953 13360195.767 15450526.880 10 0 61032 55800.00000 0 -14266231.737 11596432.959 17708353.953 10 0 61032 56700.00000 0 -13258984.121 9522699.989 19622966.528 10 0 61032 57600.00000 0 -12341809.328 7178645.555 21157237.730 10 0 61032 58500.00000 0 -11560768.815 4614532.671 22281391.396 10 0 61032 59400.00000 0 -10952676.646 1889400.435 22973577.227 10 0 61032 60300.00000 0 -10543535.379 -931138.156 23220295.174 10 0 61032 61200.00000 0 -10347441.784 -3777372.606 23016661.039 10 0 61032 62100.00000 0 -10366008.369 -6578144.354 22366508.025 10 0 61032 63000.00000 0 -10588325.273 -9263560.829 21282321.860 10 0 61032 63900.00000 0 -10991464.758 -11767662.747 19785009.959 10 0 61032 64800.00000 0 -11541507.942 -14030934.866 17903508.098 10 0 61032 65700.00000 0 -12195051.517 -16002556.469 15674231.038 10 0 61032 66600.00000 0 -12901131.975 -17642298.214 13140376.570 10 0 61032 67500.00000 0 -13603486.974 -18921986.257 10351095.356 10 0 61032 68400.00000 0 -14243058.924 -19826472.369 7360541.790 10 0 61032 69300.00000 0 -14760635.108 -20354069.108 4226823.771 10 0 61032 70200.00000 0 -15099512.381 -20516431.614 1010871.641 10 0 61032 71100.00000 0 -15208072.929 -20337890.860 -2224751.519 10 0 61032 72000.00000 0 -15042160.924 -19854266.537 -5417074.411 10 0 61032 72900.00000 0 -14567158.040 -19111209.994 -8503952.135 10 0 61032 73800.00000 0 -13759668.449 -18162147.780 -11425285.775 10 0 61032 74700.00000 0 -12608740.450 -17065913.463 -14124202.006 10 0 61032 75600.00000 0 -11116571.618 -15884168.733 -16548168.704 10 0 61032 76500.00000 0 -9298666.455 -14678723.706 -18650023.957 10 0 61032 77400.00000 0 -7183438.843 -13508870.457 -20388897.803 10 0 61032 78300.00000 0 -4811275.234 -12428843.001 -21731008.524 10 0 61032 79200.00000 0 -2233097.311 -11485511.194 -22650318.037 10 0 61032 80100.00000 0 491516.022 -10716405.780 -23129033.962 10 0 61032 81000.00000 0 3296569.103 -10148157.415 -23157949.153 10 0 61032 81900.00000 0 6112159.127 -9795414.676 -22736612.807 10 0 61032 82800.00000 0 8867150.589 -9660285.670 -21873330.514 10 0 61032 83700.00000 0 11491903.558 -9732325.597 -20584993.965 10 0 61032 84600.00000 0 13920942.806 -9989069.613 -18896744.223 10 0 61032 85500.00000 0 16095457.429 -10397087.372 -16841475.589 10 0 61033 0.00000 0 17965527.721 -10913513.764 -14459190.295 10 0 61033 900.00000 0 19491988.648 -11487990.734 -11796215.467 10 0 61033 1800.00000 0 20647851.123 -12064936.935 -8904301.018 10 0 61033 2700.00000 0 21419226.531 -12586049.936 -5839611.841 10 0 61033 3600.00000 0 21805714.829 -12992934.452 -2661637.051 10 0 61033 4500.00000 0 21820242.536 -13229745.810 567963.695 10 0 61033 5400.00000 0 21488358.586 -13245737.026 3786554.166 10 0 61033 6300.00000 0 20847018.876 -12997602.067 6931732.780 10 0 61033 7200.00000 0 19942911.508 -12451516.546 9942537.627 10 0 61033 8100.00000 0 18830393.660 -11584789.747 12760622.213 10 0 61033 9000.00000 0 17569127.141 -10387058.316 15331379.537 10 0 61033 9900.00000 0 16221511.797 -8860970.915 17604993.177 10 0 61033 10800.00000 0 14850024.309 -7022334.471 19537395.729 10 0 61033 11700.00000 0 13514573.439 -4899714.863 21091116.773 10 0 61033 12600.00000 0 12269981.924 -2533507.487 22236004.643 10 0 61033 13500.00000 0 11163699.757 25485.055 22949808.719 10 0 61033 14400.00000 0 10233843.836 2717910.711 23218611.386 10 0 61033 15300.00000 0 9507645.521 5478085.661 23037101.550 10 0 61033 16200.00000 0 9000370.696 8236481.606 22408684.305 10 0 61033 17100.00000 0 8714757.459 10922381.082 21345424.219 10 0 61033 18000.00000 0 8640995.156 13466591.930 19867822.580 10 0 61033 18900.00000 0 8757246.040 15804109.318 18004431.921 10 0 61033 19800.00000 0 9030688.158 17876615.411 15791314.119 10 0 61033 20700.00000 0 9419036.271 19634712.958 13271351.378 10 0 61033 21600.00000 0 9872477.259 21039799.734 10493422.340 10 0 61033 22500.00000 0 10335938.761 22065505.292 7511458.421 10 0 61033 23400.00000 0 10751595.314 22698629.454 4383398.136 10 0 61033 24300.00000 0 11061505.729 22939542.761 1170059.544 10 0 61033 25200.00000 0 11210269.424 22802031.645 -2066047.043 10 0 61033 26100.00000 0 11147588.167 22312594.638 -5261942.369 10 0 61033 27000.00000 0 10830623.417 21509219.292 -8355412.859 10 0 61033 27900.00000 0 10226047.874 20439691.694 -11286231.466 10 0 61033 28800.00000 0 9311702.809 19159510.445 -13997339.757 10 0 61033 29700.00000 0 8077789.482 17729493.898 -16435967.211 10 0 61033 30600.00000 0 6527542.930 16213182.426 -18554664.985 10 0 61033 31500.00000 0 4677358.438 14674146.118 -20312233.438 10 0 61033 32400.00000 0 2556364.408 13173312.016 -21674525.048 10 0 61033 33300.00000 0 205458.785 11766423.879 -22615107.127 10 0 61033 34200.00000 0 -2324151.063 10501741.412 -23115771.754 10 0 61033 35100.00000 0 -4972844.300 9418075.431 -23166883.555 10 0 61033 36000.00000 0 -7674839.479 8543240.801 -22767559.229 10 0 61033 36900.00000 0 -10360710.557 7892991.132 -21925676.076 10 0 61033 37800.00000 0 -12960061.479 7470478.692 -20657710.040 10 0 61033 38700.00000 0 -15404248.397 7266260.730 -18988407.041 10 0 61033 39600.00000 0 -17629036.602 7258850.475 -16950294.472 10 0 61033 40500.00000 0 -19577082.286 7415788.123 -14583042.728 10 0 61033 41400.00000 0 -21200136.560 7695185.428 -11932689.390 10 0 61033 42300.00000 0 -22460880.845 8047677.685 -9050741.363 10 0 61033 43200.00000 0 -23334318.159 8418699.913 -5993172.469 10 0 61033 44100.00000 0 -23808663.455 8750990.570 -2819336.046 10 0 61033 45000.00000 0 -23885696.933 8987216.683 409186.236 10 0 61033 45900.00000 0 -23580566.868 9072609.332 3629777.014 10 0 61033 46800.00000 0 -22921051.291 8957498.126 6779994.234 10 0 61033 47700.00000 0 -21946310.367 8599637.662 9798777.064 10 0 61033 48600.00000 0 -20705182.625 7966227.836 12627623.659 10 0 61033 49500.00000 0 -19254096.728 7035542.720 15211718.290 10 0 61033 50400.00000 0 -17654686.407 5798099.120 17500986.440 10 0 61033 51300.00000 0 -15971208.391 4257315.197 19451058.209 10 0 61033 52200.00000 0 -14267870.858 2429630.613 21024122.021 10 0 61033 53100.00000 0 -12606183.545 344082.070 22189652.865 10 0 61033 54000.00000 0 -11042439.454 -1958649.530 22925001.640 10 0 61033 54900.00000 0 -9625432.490 -4427682.289 23215834.660 10 0 61033 55800.00000 0 -8394505.607 -7003808.584 23056415.051 10 0 61033 56700.00000 0 -7378010.308 -9621726.322 22449720.513 10 0 61033 57600.00000 0 -6592241.438 -12212535.222 21407394.759 10 0 61033 58500.00000 0 -6040891.581 -14706395.944 19949532.847 10 0 61033 59400.00000 0 -5715047.907 -17035242.831 18104303.547 10 0 61033 60300.00000 0 -5593731.784 -19135438.287 15907414.924 10 0 61033 61200.00000 0 -5644958.813 -20950258.742 13401432.275 10 0 61033 62100.00000 0 -5827274.969 -22432108.560 10634960.557 10 0 61033 63000.00000 0 -6091704.378 -23544369.163 7661706.220 10 0 61033 63900.00000 0 -6384026.515 -24262805.410 4539436.134 10 0 61033 64800.00000 0 -6647286.294 -24576469.634 1328853.584 10 0 61033 65700.00000 0 -6824430.249 -24488064.669 -1907586.588 10 0 61033 66600.00000 0 -6860956.209 -24013750.073 -5106900.054 10 0 61033 67500.00000 0 -6707462.956 -23182399.367 -8206807.616 10 0 61033 68400.00000 0 -6321990.397 -22034339.520 -11146957.278 10 0 61033 69300.00000 0 -5672049.535 -20619626.083 -13870108.767 10 0 61033 70200.00000 0 -4736254.746 -18995927.123 -16323256.410 10 0 61033 71100.00000 0 -3505487.859 -17226105.835 -18458667.591 10 0 61033 72000.00000 0 -1983543.583 -15375604.322 -20234815.917 10 0 61033 72900.00000 0 -187227.953 -13509739.321 -21617190.646 10 0 61033 73800.00000 0 1854095.208 -11691023.987 -22578966.650 10 0 61033 74700.00000 0 4099491.438 -9976628.432 -23101522.146 10 0 61033 75600.00000 0 6497935.478 -8416085.372 -23174794.692 10 0 61033 76500.00000 0 8990222.257 -7049336.507 -22797469.149 10 0 61033 77400.00000 0 11511229.397 -5905200.554 -21976994.708 10 0 61033 78300.00000 0 13992437.082 -5000325.826 -20729431.306 10 0 61033 79200.00000 0 16364600.489 -4338669.678 -19079129.038 10 0 61033 80100.00000 0 18560463.682 -3911524.944 -17058247.294 10 0 61033 81000.00000 0 20517402.331 -3698090.467 -14706123.326 10 0 61033 81900.00000 0 22179885.645 -3666560.043 -12068502.788 10 0 61033 82800.00000 0 23501655.496 -3775682.430 -9196647.374 10 0 61033 83700.00000 0 24447532.600 -3976725.370 -6146337.032 10 0 61033 84600.00000 0 24994775.222 -4215759.829 -2976786.180 10 0 61033 85500.00000 0 25133934.566 -4436167.255 250504.913 10 0 61034 0.00000 0 24869172.075 -4581263.547 3472941.018 10 0 61034 900.00000 0 24218026.052 -4596928.674 6628043.733 10 0 61034 1800.00000 0 23210638.705 -4434130.638 9654656.467 10 0 61034 2700.00000 0 21888476.111 -4051237.481 12494125.252 10 0 61034 3600.00000 0 20302595.259 -3416019.527 15091428.546 10 0 61034 4500.00000 0 18511530.909 -2507257.502 17396236.373 10 0 61034 5400.00000 0 16578890.266 -1315888.408 19363878.597 10 0 61034 6300.00000 0 14570755.656 154359.606 20956204.369 10 0 61034 7200.00000 0 12553003.120 1886870.878 22142316.844 10 0 61034 8100.00000 0 10588647.762 3852589.764 22899169.568 10 0 61034 9000.00000 0 8735325.681 6010994.916 23212013.514 10 0 61034 9900.00000 0 7043016.525 8311561.416 23074686.346 10 0 61034 10800.00000 0 5552100.701 10695651.787 22489738.260 10 0 61034 11700.00000 0 4291831.554 13098758.993 21468391.576 10 0 61034 12600.00000 0 3279285.786 15453009.799 20030334.154 10 0 61034 13500.00000 0 2518835.612 17689825.722 18203349.647 10 0 61034 14400.00000 0 2002164.660 19742631.862 16022790.588 10 0 61034 15300.00000 0 1708826.963 21549501.248 13530903.339 10 0 61034 16200.00000 0 1607325.670 23055624.566 10776016.866 10 0 61034 17100.00000 0 1656666.132 24215501.739 7811610.117 10 0 61034 18000.00000 0 1808317.827 24994763.018 4695275.579 10 0 61034 18900.00000 0 2008501.987 25371542.407 1487598.884 10 0 61034 19800.00000 0 2200707.620 25337344.831 -1749023.562 10 0 61034 20700.00000 0 2328328.539 24897369.726 -4951605.338 10 0 61034 21600.00000 0 2337308.565 24070276.732 -8057804.536 10 0 61034 22500.00000 0 2178681.417 22887402.925 -11007146.969 10 0 61034 23400.00000 0 1810896.202 21391464.434 -13742213.078 10 0 61034 24300.00000 0 1201828.462 19634797.265 -16209764.349 10 0 61034 25200.00000 0 330390.224 17677211.781 -18361786.428 10 0 61034 26100.00000 0 -812330.318 15583551.645 -20156427.940 10 0 61034 27000.00000 0 -2222448.736 13421060.371 -21558816.431 10 0 61034 27900.00000 0 -3883210.938 11256666.482 -22541735.569 10 0 61034 28800.00000 0 -5765470.180 9154301.390 -23086150.665 10 0 61034 29700.00000 0 -7828694.975 7172362.294 -23181572.846 10 0 61034 30600.00000 0 -10022466.009 5361425.816 -22826255.420 10 0 61034 31500.00000 0 -12288399.642 3762307.228 -22027219.346 10 0 61034 32400.00000 0 -14562417.767 2404545.197 -20800107.998 10 0 61034 33300.00000 0 -16777269.380 1305373.882 -19168874.666 10 0 61034 34200.00000 0 -18865198.800 469223.627 -17165309.349 10 0 61034 35100.00000 0 -20760649.407 -112230.764 -14828414.445 10 0 61034 36000.00000 0 -22402890.423 -459478.150 -12203641.695 10 0 61034 36900.00000 0 -23738457.438 -604062.294 -9342005.430 10 0 61034 37800.00000 0 -24723305.267 -587004.512 -6299089.449 10 0 61034 38700.00000 0 -25324583.784 -456825.567 -3133966.910 10 0 61034 39600.00000 0 -25521963.090 -267251.332 91945.719 10 0 61034 40500.00000 0 -25308453.303 -74699.802 3316078.357 10 0 61034 41400.00000 0 -24690685.299 64343.930 6475917.594 10 0 61034 42300.00000 0 -23688641.326 95953.618 9510214.204 10 0 61034 43200.00000 0 -22334847.217 -28722.210 12360164.671 10 0 61034 44100.00000 0 -20673060.300 -351160.511 14970544.223 10 0 61034 45000.00000 0 -18756507.888 -903477.132 17290769.872 10 0 61034 45900.00000 0 -16645749.698 -1706837.205 19275873.537 10 0 61034 46800.00000 0 -14406253.052 -2770329.726 20887367.178 10 0 61034 47700.00000 0 -12105781.215 -4090354.220 22093983.876 10 0 61034 48600.00000 0 -9811702.802 -5650546.203 22872281.230 10 0 61034 49500.00000 0 -7588333.234 -7422245.834 23207095.908 10 0 61034 50400.00000 0 -5494417.796 -9365491.808 23091840.764 10 0 61034 51300.00000 0 -3580859.994 -11430500.748 22528638.774 10 0 61034 52200.00000 0 -1888788.875 -13559572.267 21528290.800 10 0 61034 53100.00000 0 -448045.084 -15689342.021 20110077.110 10 0 61034 54000.00000 0 723851.759 -17753290.398 18301395.513 10 0 61034 54900.00000 0 1622211.567 -19684403.421 16137241.974 10 0 61034 55800.00000 0 2255137.056 -21417875.599 13659542.573 10 0 61034 56700.00000 0 2642943.421 -22893742.079 10916348.633 10 0 61034 57600.00000 0 2817058.818 -24059329.850 7960909.690 10 0 61034 58500.00000 0 2818452.108 -24871424.680 4850641.700 10 0 61034 59400.00000 0 2695654.443 -25298062.003 1646010.295 10 0 61034 60300.00000 0 2502458.823 -25319865.437 -1590649.063 10 0 61034 61200.00000 0 2295395.712 -24930875.492 -4796350.506 10 0 61034 62100.00000 0 2131092.666 -24138832.576 -7908692.170 10 0 61034 63000.00000 0 2063631.079 -22964901.545 -10867080.536 10 0 61034 63900.00000 0 2142013.472 -21442848.869 -13613919.661 10 0 61034 64800.00000 0 2407850.058 -19617706.825 -16095741.092 10 0 61034 65700.00000 0 2893363.925 -17543980.966 -18264251.553 10 0 61034 66600.00000 0 3619800.502 -15283476.522 -20077277.317 10 0 61034 67500.00000 0 4596309.559 -12902835.359 -21499586.575 10 0 61034 68400.00000 0 5819347.800 -10470887.190 -22503573.780 10 0 61034 69300.00000 0 7272627.852 -8055926.232 -23069792.911 10 0 61034 70200.00000 0 8927616.228 -5723027.264 -23187329.782 10 0 61034 71100.00000 0 10744559.679 -3531512.941 -22854006.808 10 0 61034 72000.00000 0 12673997.008 -1532677.507 -22076416.950 10 0 61034 72900.00000 0 14658693.142 232139.122 -20869786.839 10 0 61034 73800.00000 0 16635914.578 1733047.911 -19257672.384 10 0 61034 74700.00000 0 18539951.064 2952617.054 -17271493.237 10 0 61034 75600.00000 0 20304778.172 3886347.984 -14949915.587 10 0 61034 76500.00000 0 21866749.611 4542603.160 -12338095.514 10 0 61034 77400.00000 0 23167206.863 4941990.670 -9486797.830 10 0 61034 78300.00000 0 24154897.291 5116233.435 -6451407.661 10 0 61034 79200.00000 0 24788099.892 5106572.263 -3290854.041 10 0 61034 80100.00000 0 25036370.135 4961771.413 -66466.536 10 0 61034 81000.00000 0 24881831.202 4735811.849 3159212.865 10 0 61034 81900.00000 0 24319958.112 4485370.277 6323639.604 10 0 61034 82800.00000 0 23359822.255 4267190.825 9365474.742 10 0 61034 83700.00000 0 22023786.344 4135460.462 12225768.271 10 0 61034 84600.00000 0 20346662.775 4139298.963 14849095.026 10 0 61034 85500.00000 0 18374370.352 4320469.123 17184621.601 99